Location: Griffin Ranch
(33.6186°N, 110.6622°W)
Time: 05:21:50
(UTC-07:00)

Cosmos 1812 - Visible Passes

Search period start: 08 February 2016 00:00
Search period end: 18 February 2016 00:00
Orbit: 523 x 529 km, 82.5° (Epoch: 07 February)

Date Brightness Start Highest point End Pass type
(mag) Time Alt. Az. Time Alt. Az. Time Alt. Az.
14 Feb 5.7 20:33:33 10° NNW 20:33:42 11° NNW 20:33:42 11° NNW visible
15 Feb 4.7 18:47:38 10° NE 18:48:31 12° ENE 18:48:31 12° ENE visible
15 Feb 4.7 20:21:36 10° NNW 20:23:54 27° NW 20:23:54 27° NW visible
16 Feb 4.7 18:36:27 10° ENE 18:37:14 10° ENE 18:38:01 10° E visible
16 Feb 4.1 20:09:40 10° NNW 20:13:18 38° W 20:15:56 17° SSW visible
17 Feb 3.9 19:57:45 10° NNW 20:01:28 44° W 20:05:10 10° SSW visible
